Retour au catalogue

COSMOS 2355

ActifNavigationPO
NORAD 25366·PAYLOAD·🇷🇺 Russia

Lancé Jun 15, 1998 depuis Plesetsk Cosmodrome

Loading…

Prochains Passages (prochaines 24 heures)

TLE

FraisSource: Space-Track

Époque: Sep 14, 2026, 12:38 UTC

1 25366U 98036D   26257.52645609  .00000008  00000-0 -88758-5 0  9997
2 25366  82.5849 288.0323 0353532   7.5795 145.5664 12.21820929259935

Suivez COSMOS 2355 en temps réel avec AllMySat

Download on the App Store